• MPC Preparation (Info)

  • MPEC 2023-F234 : 2023 FS11

    The following Minor Planet Electronic Circular may be linked-to from your own Web pages, but must not otherwise be redistributed electronically.

    A form allowing access to any MPEC is at the bottom of this page.


    Read MPEC 2023-F233 Read MPEC 2023-F235


    M.P.E.C. 2023-F234                               Issued 2023 March 30, 08:06 UT
    
         The Minor Planet Electronic Circulars contain information on unusual
             minor planets, routine data on comets and natural satellites,
             and occasional editorial announcements.  They are published
        on behalf of Division F of the International Astronomical Union by the
              Minor Planet Center, Smithsonian Astrophysical Observatory,
                              Cambridge, MA 02138, U.S.A.
    			  
                 Prepared using the Tamkin Foundation Computer Network
    
                                  MPC@CFA.HARVARD.EDU
                URL https://www.minorplanetcenter.net/    ISSN 1523-6714
    
                                    2023 FS11                                
    
    
    Observations:
         K23F11S*1C2023 03 28.43465416 05 05.730+07 47 13.34         21.12GVEF234G96
         K23F11S 1C2023 03 28.43977216 05 10.568+07 46 34.39         21.11GVEF234G96
         K23F11S 1C2023 03 28.44489116 05 15.468+07 45 55.69         21.97GVEF234G96
         K23F11S 1C2023 03 28.45002216 05 20.375+07 45 16.49         21.15GVEF234G96
         K23F11S KC2023 03 28.48256416 05 51.870+07 41 04.40         21.87GVEF234V06
         K23F11S KC2023 03 28.48474916 05 53.980+07 40 48.40         21.64GVEF234V06
         K23F11S KC2023 03 28.48693516 05 56.120+07 40 30.80         21.82GVEF234V06
         K23F11S KC2023 03 28.48911716 05 58.230+07 40 13.40               VEF234V06
         K23F11S KC2023 03 28.50372816 06 12.431+07 38 20.00         21.19GVEF234V06
         K23F11S KC2023 03 28.50539516 06 14.065+07 38 07.04         20.75GVEF234V06
         K23F11S KC2023 03 28.50706316 06 15.667+07 37 54.23         21.37GVEF234V06
         K23F11S KC2023 03 28.50873016 06 17.330+07 37 40.19         20.01GVEF234V06
         K23F11S KC2023 03 29.38276216 22 15.078+05 35 23.17         21.84GVEF234I52
         K23F11S KC2023 03 29.38496816 22 17.515+05 35 02.58         21.24GVEF234I52
         K23F11S KC2023 03 29.38910616 22 22.037+05 34 27.23         20.84GVEF234I52
         K23F11S KC2023 03 29.39131416 22 24.586+05 34 07.07         20.80GVEF234I52
         K23F11S |C2023 03 30.28863 16 40 47.77 +03 11 20.7          21.5 GVEF234807
         K23F11S |C2023 03 30.29416 16 40 54.69 +03 10 23.5          21.7 GVEF234807
         K23F11S |C2023 03 30.29971 16 41 01.67 +03 09 25.7          21.3 GVEF234807
    
    Observer details:
    807 Cerro Tololo Observatory, La Serena.  Observers T. Linder, R. Holmes, L.
        Horn.  1.00-m f/10.0 astrograph + CCD.
    G96 Mt. Lemmon Survey.  Observer G. J. Leonard.  Measurers E. J. Christensen,
        D. Fay, J. B. Fazekas, D. C. Fuls, A. R. Gibbs, A. D. Grauer, H. Groeller,
        J. K. Hogan, R. A. Kowalski, S. M. Larson, G. J. Leonard, D. Rankin, R. L.
        Seaman, A. Serrano, F. C. Shelly, K. W. Wierzchos.  1.5-m reflector + 10K
        CCD.
    I52 Steward Observatory, Mt. Lemmon Station.  Observer J. B. Fazekas.
        Measurers E. J. Christensen, D. Fay, J. B. Fazekas, D. C. Fuls, A. R.
        Gibbs, A. D. Grauer, H. Groeller, J. K. Hogan, R. A. Kowalski, S. M.
        Larson, G. J. Leonard, D. Rankin, R. L. Seaman, A. Serrano, F. C. Shelly,
        K. W. Wierzchos.  1.0-m prime focus + CCD.
    V06 Catalina Sky Survey-Kuiper.  Observer J. B. Fazekas.  Measurers E. J.
        Christensen, D. Fay, J. B. Fazekas, D. C. Fuls, A. R. Gibbs, A. D. Grauer,
        H. Groeller, J. K. Hogan, R. A. Kowalski, S. M. Larson, G. J. Leonard, D.
        Rankin, R. L. Seaman, A. Serrano, F. C. Shelly, K. W. Wierzchos.  1.55-m
        reflector + 1K CCD.
    
    Orbital elements:
    2023 FS11                                                Earth MOID = 0.0053 AU
    Epoch 2023 Feb. 25.0 TT = JDT 2460000.5                 Veres                   
    M 307.28258              (2000.0)            P               Q                  
    n   0.62623715     Peri.  236.65753     -0.26265318     +0.96328018             
    a   1.3530385      Node    18.36117     -0.81604817     -0.19095306             
    e   0.3533717      Incl.   10.18822     -0.51485793     -0.18875442             
    P   1.57           H   25.66          G   0.15           U   8                  
    Residuals in seconds of arc
    230328 G96 (1.8+  0.6-)   230328 V06  0.1+  0.6-    230329 I52 (1.3-  0.9+)
    230328 G96  0.4+  0.3-    230328 V06  0.1+  0.4-    230329 I52  0.2+  0.6+
    230328 G96  0.1-  0.2+    230328 V06  0.3+  0.3-    230330 807  0.1-  0.2-
    230328 G96  0.7-  0.5+    230328 V06  0.0   0.1-    230330 807  0.2-  0.1+
    230328 V06  0.0   0.5-    230328 V06  0.6+  1.2-    230330 807  0.2+  0.1+
    230328 V06  0.1-  0.5+    230329 I52  0.2-  0.3-
    230328 V06  0.2+  0.2-    230329 I52  0.3-  1.0-
    
    Ephemeris:
    2023 FS11                a,e,i = 1.35, 0.35, 10                  q = 0.8749
    Date    TT    R. A. (2000) Decl.     Delta      r    Elong.  Phase     V
    2023 02 28    13 31 21.0 +20 24 37   0.2525  1.1883   137.3    34.4    24.5
    ...
    2023 03 15    14 13 18.2 +19 01 08   0.1427  1.1050   138.4    36.7    23.1
    ...
    2023 03 23    14 59 42.8 +15 14 51   0.09086 1.0620   134.3    42.2    22.2
    ...
    2023 03 29    16 14 59.1 +06 32 26   0.05849 1.0309   122.6    54.6    21.6
    2023 03 30    16 34 32.7 +03 59 04   0.05431 1.0258   119.0    58.4    21.5
    2023 03 31    16 56 53.6 +00 59 44   0.05069 1.0208   114.6    62.9    21.5
    ...
    2023 04 06    19 57 54.0 -20 26 22   0.04718 0.9918    78.2    99.2    22.6
    ...
    2023 04 14    22 43 53.6 -28 07 50   0.08314 0.9565    54.2   121.8    25.1
    ...
    2023 04 29    00 12 17.7 -25 30 10   0.1794  0.9044    50.9   120.3    26.6
    
    M. P. C. Staff               (C) Copyright 2023 MPC           M.P.E.C. 2023-F234
    


    Read MPEC 2023-F233 Read MPEC 2023-F235


    MPEC number:

    Enter an MPEC number in one of the following forms:

    • 1997-B01 (the full form)
    • J97B01 (the packed version of the full form)
    • B01 (the abbreviated form)